Banff, Alberta

7:13 AM MDT on June 27, 2017 (GMT -0600)
Banff

Weather History for CWZG - February, 2013

Change the Weather History Date:

Saturday, February 23, 2013

  Actual Average Record
Temperature  
Mean Temperature 26 °F -  
Max Temperature 34 °F - - ()
Min Temperature 19 °F - - ()
Degree Days  
Heating Degree Days 38    
Moisture  
Dew Point 13 °F    
Average Humidity 58    
Maximum Humidity 82    
Minimum Humidity 28    
Precipitation  
Precipitation 0.00 in - - ()
Sea Level Pressure  
Sea Level Pressure 29.75 in    
Wind  
Wind Speed 4 mph ()    
Max Wind Speed 10 mph    
Max Gust Speed 17 mph    
T = Trace of Precipitation, MM = Missing Value Source: Averaged Metar Reports

Daily Weather History Graph

Daily Weather History Graph

Search for Another Location

Airport or City:

Trip Planner

Search our weather history database for the weather conditions in past years. The results will help you decide how hot, cold, wet, or windy it might be!

Date:

Astronomy

Feb. 23, 2013 Rise Set
Actual Time 7:38 AM MST 6:13 PM MST
Civil Twilight 7:05 AM MST 6:46 PM MST
Nautical Twilight 6:26 AM MST 7:25 PM MST
Astronomical Twilight 5:48 AM MST 8:03 PM MST
Moon 4:21 PM MST (2/23) 6:12 AM MST (2/23)
Length of Visible Light 11h 41m
Length of Day
10h 34m
Waxing Gibbous, 95% of the Moon is Illuminated
Feb 23
Waxing Gibbous
Feb 25
Full
Mar 4
Last Quarter
Mar 11
New
Mar 19
First Quarter

Hourly Weather History & Observations

Time (MST) Temp. Windchill Dew Point Humidity Pressure Visibility Wind Dir Wind Speed Gust Speed Precip Events Conditions
12:00 AM 27.0 °F 21.6 °F 21.0 °F 78% 29.45 in - SW 4.6 mph - N/A   Unknown
1:00 AM 26.2 °F - 21.2 °F 81% 29.46 in - SW 2.3 mph - N/A   Unknown
2:00 AM 25.9 °F 21.7 °F 20.5 °F 80% 29.48 in - SW 3.5 mph - N/A   Unknown
3:00 AM 25.3 °F 19.7 °F 20.3 °F 81% 29.50 in - WSW 4.6 mph - N/A   Unknown
4:00 AM 23.4 °F 18.9 °F 18.7 °F 82% 29.51 in - West 3.5 mph - N/A   Unknown
5:00 AM 22.1 °F 17.4 °F 16.9 °F 80% 29.54 in - West 3.5 mph - N/A   Unknown
6:00 AM 22.3 °F 14.9 °F 17.6 °F 82% 29.56 in - WSW 5.8 mph - N/A   Unknown
7:00 AM 19.0 °F - 13.6 °F 79% 29.61 in - ENE 2.3 mph - N/A   Unknown
8:00 AM 23.0 °F 18.4 °F 17.8 °F 80% 29.63 in - WSW 3.5 mph - N/A   Unknown
9:00 AM 24.3 °F 17.3 °F 17.1 °F 74% 29.68 in - WSW 5.8 mph - N/A   Unknown
10:00 AM 26.8 °F 21.4 °F 17.4 °F 68% 29.71 in - WSW 4.6 mph - N/A   Unknown
12:00 PM 33.6 °F 25.6 °F 9.5 °F 37% 29.75 in - SW 10.4 mph 17.3 mph N/A   Unknown
1:00 PM 34.5 °F 27.9 °F 5.7 °F 30% 29.77 in - WSW 8.1 mph - N/A   Unknown
2:00 PM 34.0 °F 31.0 °F 7.0 °F 32% 29.80 in - West 3.5 mph - N/A   Unknown
3:00 PM 31.3 °F 26.6 °F 6.8 °F 36% 29.85 in - West 4.6 mph - N/A   Unknown
4:00 PM 31.5 °F 24.9 °F 6.4 °F 35% 29.88 in - WSW 6.9 mph - N/A   Unknown
5:00 PM 33.8 °F 29.6 °F 3.6 °F 28% 29.91 in - West 4.6 mph - N/A   Unknown
6:00 PM 30.4 °F 26.9 °F 7.2 °F 38% 29.97 in - West 3.5 mph - N/A   Unknown
7:00 PM 28.9 °F 25.2 °F 8.4 °F 42% 30.00 in - West 3.5 mph - N/A   Unknown
8:00 PM 27.9 °F 21.5 °F 9.3 °F 46% 30.02 in - WSW 5.8 mph - N/A   Unknown
9:00 PM 27.0 °F 21.6 °F 9.9 °F 49% 30.04 in - West 4.6 mph - N/A   Unknown
10:00 PM 25.7 °F 21.5 °F 10.0 °F 52% 30.05 in - WSW 3.5 mph - N/A   Unknown
11:00 PM 25.2 °F 19.5 °F 9.5 °F 52% 30.05 in - WSW 4.6 mph - N/A   Unknown